Tracking 25693 objects as of 30-Jun-2022
HD Live streaming from Space Station
objects crossing your sky now

GGSE 3 DEB

Track GGSE 3 DEB now!
10-day predictions


NORAD ID: 44043
Int'l Code: 1965-016L
Perigee: 884.1 km
Apogee: 909.4 km
Inclination: 70.1 °
Period: 102.8 minutes
Semi major axis: 7267 km
RCS: Unknown
Launch date: March 9, 1965
Source: United States (US)
Launch site: AIR FORCE WESTERN TEST RANGE (AFWTR)

Note: This is SATELLITE DEBRIS
aabbcc
Your satellite tracking list
Your tracking list is empty




NASA's NSSDC Master Catalog

Two Line Element Set (TLE):
1 44043U 65016L   22180.42681730  .00000326  00000-0  25153-3 0  9997
2 44043  70.0752 183.0450 0017416  68.5255 291.7709 14.01206629172599
Source of the keplerian elements: AFSPC